Location: Cambroso
(45.2833°N, 12.0850°E)
Time: 19:34:16
(UTC+00:00)

BREEZE-M DEB (TANK) - Pass Details

Date: 21 January 2021
Orbit: 311 x 13784 km, 49.6° (Epoch: 03 March)

Event Time Altitude Azimuth Distance (km) Brightness Sun altitude
Rises 17:16:07 0° 281° (WNW) 2,446 7.4 -12.7°
Reaches altitude 10° 17:18:26 10° 294° (WNW) 1,282 5.5 -13.1°
Maximum altitude 17:20:34 30° 1° (N) 601 2.9 -13.4°
Enters shadow 17:21:11 25° 34° (NE) 695 2.9 -13.6°
